DELTA 1 DEB, 14471

Orbit data source: Space-Track

DELTA 1 DEB, 14471 is space debris in SSO originally from a launch on Thu, 29 Jul 1976 UTC launched from the Air Force Western Test Range (AFWTR). Debris objects in space refer to the collection of defunct objects orbiting the Earth. Examples of debris include non-operational satellites, rocket bodies, and fragments generated from explosions, collisions, or faulty payload assembly.

Loading next visibility...
Identifier
14471, 1976-077EN
Orbit
SSO
Country
Flag of USUS
Related business
Manufacturer
Unknown
Mission
Spacecraft
Bus & Motor
Unknown
Mass
Unknown
Launch date (UTC)
1976-07-29 (49 years ago)
Launch vehicle
Unknown
Launch site
Air Force Western Test Range (AFWTR)
Object type
Payload
Rocket body
Debris
Shape & HBR
Unknown shape, 0.1 m
Radar Cross Section
Small (<0.1 m²)

Expand to show TLE details & history
Last TLE update: 2 days ago

TLE from 2 days ago
0 DELTA 1 DEB
1 14471U 76077EN  25290.88551366  .00000132  00000-0  15565-2 0  9994
2 14471 102.4260 259.6876 0129980 305.6999 112.2258 12.25527116909547
Epoch: 2025-10-17T21:15Z
TLE epoch observation values (Epoch: 2025-10-17T21:15:08.380Z)
Latitude
57.19795°
Longitude
-105.6124°
Altitude
1,618.14 km
Speed
7.049 km/s
True Right ascension
15h 59m 11s
True Declination
57° 03' 29"
Sunlit
Object was in daylight at epoch
Visualization orbit readout
Latitude
Unknown
Longitude
Unknown
Altitude
Unknown
Speed
Unknown
Apparent Right ascension
Unknown
Apparent Declination
Unknown
Sunlit
N/A
Visualization observer readout
Local Sidereal Time
21:41:44
Azimuth
Unknown
Elevation
Unknown
Doppler factor
Unknown
Orbital elements
Apogee altitude
1,669.437 km
Perigee altitude
1,462.917 km
Semi-major axis
7,944.314 km
Eccentricity
0.013
Inclination
102.426°
RAAN
259.6876°
Arg. of periapsis
305.6999°
True anomaly
113.59604°
Mean anomaly
112.2258°
Eccentric anomaly
112.91178°
Mean motion
3.0652 °/min
Orbital period
117.45 mins
BSTAR
0.0015565
Loading maneuver chart data...
Computing Atmospheric mass density...
Loading historical data...
Loading historical data...
Loading historical data...
Loading historical data...
Loading historical data...
Loading historical data...
Loading historical data...

Documentation

Showing up to 5 results
|